When you browse on this site, cookies collect data to enhance your experience and personalize the content and advertising you see.
Visit our Privacy Policy to learn more. By continuing to use the site, you agree to this use of cookies and data.
  • In Austria
  • List of Countries
  • For 7 days
  • Water Temperature
  • Satellite Maps
  • Weather Map
  • News
  • Weather Widgets
  • user-avatar
    Login

    Hourly Weather Coronado

    Today, 22 April, Monday

    Time Temperature Precipitation Wind Pressure Humidity
    00:00 +14°C° 0 mm 1 mps 761 mmHg 75%
    01:00 +14°C° 0 mm 1 mps 761 mmHg 75%
    02:00 +14°C° 0 mm 1 mps 760 mmHg 75%
    03:00 +14°C° 0 mm 1 mps 760 mmHg 75%
    04:00 +14°C° 0 mm 1 mps 760 mmHg 75%
    05:00 +15°C° 0 mm 1 mps 760 mmHg 72%
    06:00 +15°C° 0 mm 1 mps 760 mmHg 69%
    07:00 +16°C° 0 mm 1 mps 760 mmHg 66%
    08:00 +18°C° 0 mm 1 mps 760 mmHg 62%
    09:00 +20°C° 0 mm 1 mps 761 mmHg 57%
    10:00 +20°C° 0 mm 2 mps 761 mmHg 53%
    11:00 +21°C° 0 mm 2 mps 760 mmHg 52%
    12:00 +22°C° 0 mm 3 mps 760 mmHg 51%
    13:00 +24°C° 0 mm 3 mps 760 mmHg 50%
    14:00 +24°C° 0 mm 3 mps 759 mmHg 51%
    15:00 +24°C° 0 mm 3 mps 759 mmHg 52%
    16:00 +24°C° 0 mm 3 mps 759 mmHg 53%
    17:00 +22°C° 0 mm 3 mps 759 mmHg 57%
    18:00 +21°C° 0 mm 2 mps 759 mmHg 61%
    19:00 +20°C° 0 mm 2 mps 759 mmHg 65%
    20:00 +20°C° 0 mm 1 mps 759 mmHg 66%
    21:00 +20°C° 0 mm 1 mps 760 mmHg 66%
    22:00 +20°C° 0 mm 1 mps 760 mmHg 67%
    23:00 +20°C° 0 mm 1 mps 760 mmHg 66%

    Tomorrow, 23 April, Tuesday

    Time Temperature Precipitation Wind Pressure Humidity
    00:00 +20°C° 0 mm 1 mps 760 mmHg 65%
    01:00 +19°C° 0 mm 1 mps 760 mmHg 64%
    02:00 +19°C° 0 mm 1 mps 760 mmHg 63%
    03:00 +17°C° 0 mm 0 mps 759 mmHg 62%
    04:00 +17°C° 0 mm 0 mps 759 mmHg 62%
    05:00 +18°C° 0 mm 0 mps 760 mmHg 58%
    06:00 +19°C° 0 mm 0 mps 760 mmHg 54%
    07:00 +22°C° 0 mm 1 mps 760 mmHg 49%
    08:00 +23°C° 0 mm 1 mps 760 mmHg 47%
    09:00 +25°C° 0 mm 2 mps 760 mmHg 44%
    10:00 +26°C° 0 mm 2 mps 760 mmHg 41%
    11:00 +27°C° 0 mm 2 mps 760 mmHg 40%
    12:00 +27°C° 0 mm 3 mps 760 mmHg 39%
    13:00 +28°C° 0 mm 3 mps 760 mmHg 39%
    14:00 +28°C° 0 mm 3 mps 759 mmHg 39%
    15:00 +27°C° 0 mm 2 mps 759 mmHg 39%
    16:00 +27°C° 0 mm 2 mps 758 mmHg 40%
    17:00 +26°C° 0 mm 2 mps 759 mmHg 43%
    18:00 +25°C° 0 mm 1 mps 759 mmHg 45%
    19:00 +22°C° 0 mm 0 mps 760 mmHg 48%
    20:00 +23°C° 0 mm 1 mps 760 mmHg 49%
    21:00 +23°C° 0 mm 1 mps 760 mmHg 50%
    22:00 +23°C° 0 mm 1 mps 761 mmHg 50%
    23:00 +22°C° 0 mm 1 mps 761 mmHg 51%

    Day after tomorrow, 24 April, Wednesday

    Time Temperature Precipitation Wind Pressure Humidity
    00:00 +22°C° 0 mm 1 mps 760 mmHg 51%
    01:00 +21°C° 0 mm 1 mps 760 mmHg 51%
    02:00 +21°C° 0 mm 1 mps 760 mmHg 52%
    03:00 +21°C° 0 mm 1 mps 760 mmHg 52%
    04:00 +20°C° 0 mm 1 mps 760 mmHg 53%
    05:00 +21°C° 0 mm 1 mps 760 mmHg 50%
    06:00 +22°C° 0 mm 1 mps 761 mmHg 46%
    07:00 +21°C° 0 mm 0 mps 761 mmHg 43%
    08:00 +25°C° 0 mm 1 mps 761 mmHg 40%
    09:00 +26°C° 0 mm 1 mps 761 mmHg 37%
    10:00 +27°C° 0 mm 2 mps 761 mmHg 34%
    11:00 +28°C° 0 mm 2 mps 761 mmHg 33%
    12:00 +28°C° 0 mm 3 mps 760 mmHg 32%
    13:00 +29°C° 0 mm 3 mps 760 mmHg 31%
    14:00 +29°C° 0 mm 3 mps 760 mmHg 31%
    15:00 +28°C° 0 mm 3 mps 759 mmHg 32%
    16:00 +28°C° 0 mm 3 mps 759 mmHg 32%
    17:00 +27°C° 0 mm 2 mps 759 mmHg 36%
    18:00 +25°C° 0 mm 2 mps 759 mmHg 40%
    19:00 +24°C° 0 mm 2 mps 760 mmHg 44%
    20:00 +24°C° 0 mm 2 mps 760 mmHg 46%
    21:00 +23°C° 0 mm 1 mps 761 mmHg 47%
    22:00 +23°C° 0 mm 1 mps 761 mmHg 48%
    23:00 +22°C° 0 mm 1 mps 761 mmHg 50%

    25 April, Thursday

    Time Temperature Precipitation Wind Pressure Humidity
    00:00 +21°C° 0 mm 1 mps 761 mmHg 52%
    01:00 +21°C° 0 mm 1 mps 760 mmHg 53%
    02:00 +21°C° 0 mm 1 mps 760 mmHg 51%
    03:00 +21°C° 0 mm 1 mps 760 mmHg 50%
    04:00 +21°C° 0 mm 1 mps 760 mmHg 48%
    05:00 +22°C° 0 mm 1 mps 760 mmHg 43%
    06:00 +21°C° 0 mm 0 mps 760 mmHg 37%
    07:00 +22°C° 0 mm 0 mps 761 mmHg 32%
    08:00 +26°C° 0 mm 1 mps 761 mmHg 31%
    09:00 +27°C° 0 mm 2 mps 761 mmHg 29%
    10:00 +28°C° 0 mm 3 mps 761 mmHg 27%
    11:00 +28°C° 0 mm 3 mps 761 mmHg 28%
    12:00 +29°C° 0 mm 3 mps 761 mmHg 28%
    13:00 +29°C° 0 mm 3 mps 760 mmHg 29%
    14:00 +29°C° 0 mm 3 mps 760 mmHg 30%
    15:00 +28°C° 0 mm 3 mps 760 mmHg 30%
    16:00 +28°C° 0 mm 3 mps 760 mmHg 31%
    17:00 +27°C° 0 mm 3 mps 760 mmHg 36%
    18:00 +25°C° 0 mm 3 mps 760 mmHg 40%
    19:00 +24°C° 0 mm 2 mps 761 mmHg 45%
    20:00 +23°C° 0 mm 2 mps 761 mmHg 47%
    21:00 +23°C° 0 mm 1 mps 761 mmHg 50%
    22:00 +22°C° 0 mm 1 mps 762 mmHg 52%
    23:00 +22°C° 0 mm 1 mps 761 mmHg 51%

    26 April, Friday

    Time Temperature Precipitation Wind Pressure Humidity
    00:00 +21°C° 0 mm 1 mps 761 mmHg 51%
    01:00 +21°C° 0 mm 1 mps 761 mmHg 50%
    02:00 +21°C° 0 mm 1 mps 761 mmHg 50%
    03:00 +21°C° 0 mm 1 mps 761 mmHg 50%
    04:00 +20°C° 0 mm 1 mps 761 mmHg 50%
    05:00 +21°C° 0 mm 1 mps 761 mmHg 48%
    06:00 +22°C° 0 mm 1 mps 761 mmHg 46%
    07:00 +23°C° 0 mm 1 mps 762 mmHg 44%
    08:00 +24°C° 0 mm 2 mps 762 mmHg 41%
    09:00 +25°C° 0 mm 2 mps 762 mmHg 37%
    10:00 +27°C° 0 mm 2 mps 762 mmHg 34%
    11:00 +27°C° 0 mm 2 mps 761 mmHg 33%
    12:00 +28°C° 0 mm 3 mps 761 mmHg 33%
    13:00 +28°C° 0 mm 3 mps 761 mmHg 33%
    14:00 +28°C° 0 mm 3 mps 760 mmHg 34%
    15:00 +27°C° 0 mm 4 mps 760 mmHg 36%
    16:00 +27°C° 0 mm 4 mps 760 mmHg 37%
    17:00 +26°C° 0 mm 3 mps 760 mmHg 43%
    18:00 +24°C° 0 mm 3 mps 760 mmHg 49%
    19:00 +22°C° 0 mm 3 mps 761 mmHg 54%
    20:00 +21°C° 0 mm 2 mps 761 mmHg 57%
    21:00 +20°C° 0 mm 2 mps 761 mmHg 59%
    22:00 +20°C° 0 mm 2 mps 761 mmHg 61%
    23:00 +19°C° 0 mm 2 mps 761 mmHg 63%

    27 April, Saturday

    Time Temperature Precipitation Wind Pressure Humidity
    00:00 +19°C° 0 mm 2 mps 761 mmHg 65%
    01:00 +19°C° 0 mm 2 mps 761 mmHg 67%
    02:00 +19°C° 0 mm 1 mps 761 mmHg 67%
    03:00 +19°C° 0 mm 1 mps 761 mmHg 67%
    04:00 +19°C° 0 mm 1 mps 761 mmHg 68%
    05:00 +20°C° 0 mm 1 mps 761 mmHg 63%
    06:00 +21°C° 0 mm 1 mps 761 mmHg 59%
    07:00 +21°C° 0 mm 1 mps 761 mmHg 55%
    08:00 +23°C° 0 mm 2 mps 761 mmHg 50%
    09:00 +24°C° 0 mm 2 mps 761 mmHg 45%
    10:00 +25°C° 0 mm 3 mps 761 mmHg 41%
    11:00 +25°C° 0 mm 3 mps 760 mmHg 43%
    12:00 +25°C° 0 mm 4 mps 760 mmHg 45%
    13:00 +25°C° 0 mm 4 mps 760 mmHg 47%
    14:00 +25°C° 0 mm 4 mps 759 mmHg 46%
    15:00 +25°C° 0 mm 3 mps 759 mmHg 45%
    16:00 +25°C° 0 mm 3 mps 758 mmHg 45%
    17:00 +24°C° 0 mm 3 mps 759 mmHg 50%
    18:00 +22°C° 0 mm 3 mps 759 mmHg 56%
    19:00 +20°C° 0 mm 3 mps 759 mmHg 61%
    20:00 +20°C° 0 mm 3 mps 759 mmHg 65%
    21:00 +19°C° 0 mm 3 mps 760 mmHg 69%
    22:00 +18°C° 0 mm 3 mps 760 mmHg 73%
    23:00 +18°C° 0 mm 2 mps 759 mmHg 76%
    Show more